• Join FlightAware (Why Join?)
  • Login
  • US Flag 
05:06PM EST


 

Airport Tracker/Info


-or-


 

Live Flight TrackerFlight Track Log ✈ BOE523 ✈ 13-Nov-2012 ✈ KMWH - KBFI

Flight Track Log - Related Links

Times and Time Zones

All times are in EST time to prevent confusion due to time zone crossing. See the BOE523 flight status page for this flight to view local times or setup timezone preferences in your user account.

Time Position Orientation Groundspeed Altitude Reporting Facility
EST Latitude Longitude Course Direction KTS MPH feet Rate Location/Type
02:55PM 47.2225 -119.3258 297° West 157 181 2,100  Level Seattle Center
02:56PM 47.2522 -119.4128 297° West 242 278 5,900 4,033 Climbing Seattle Center
02:57PM 47.2864 -119.5103 297° West 270 311 10,300 4,475 Climbing Seattle Center
02:58PM 47.3203 -119.6089 297° West 272 313 15,000 3,639 Climbing Seattle Center
02:59PM 47.3875 -119.6144 357° North 309 356 17,700 2,459 Climbing Seattle Center
03:00PM 47.4739 -119.5972 North 315 362 20,000 1,131 Climbing Seattle Center
03:01PM 47.5275 -119.7781 294° West 363 418 20,000  Level Seattle Center
03:02PM 47.5617 -119.9242 289° West 377 434 20,000  Level Seattle Center
03:03PM 47.5961 -120.0725 289° West 382 440 20,000  Level Seattle Center
03:04PM 47.6322 -120.2206 290° West 384 442 20,000  Level Seattle Center
03:05PM 47.6664 -120.3708 289° West 385 443 20,000  Level Seattle Center
03:06PM 47.7003 -120.5186 289° West 374 430 20,000  Level Seattle Center
03:07PM 47.7294 -120.6486 288° West 342 394 20,000  Level Seattle Center
03:08PM 47.7592 -120.7792 289° West 338 389 20,000  Level Seattle Center
03:09PM 47.7892 -120.9106 289° West 340 391 20,000  Level Seattle Center
03:10PM 47.8147 -121.0131 290° West 344 396 20,000  Level Seattle Center
03:10PM 47.8172 -121.0456 277° West 344 396 20,000 -815 Level Seattle Center
03:11PM 47.8461 -121.1744 289° West 338 389 18,900 -1,636 Descending Seattle Center
03:12PM 47.8617 -121.3022 280° West 325 374 16,700 -2,361 Descending Seattle Center
03:13PM 47.8703 -121.4536 275° West 313 360 14,100 -2,262 Descending Seattle Center
03:14PM 47.8781 -121.5761 275° West 304 350 12,100 -1,672 Descending Seattle Center
03:15PM 47.8844 -121.6975 275° West 300 345 10,700 -1,377 Descending Seattle Center
03:16PM 47.8339 -121.7761 226° Southwest 269 310 9,300 -1,721 Descending Seattle Center
03:17PM 47.7806 -121.8483 222° Southwest 262 302 7,200 -1,721 Descending Seattle Center
03:18PM 47.7286 -121.9197 223° Southwest 258 297 5,800 -1,513 Descending Seattle Center
03:19PM 47.7286 -122.0389 270° West 259 298 4,200 -1,160 Descending Seattle Center
03:20PM 47.7431 -122.1297 283° West 220 253 3,500 -576 Descending Seattle Center
03:21PM 47.7550 -122.2186 281° West 210 242 3,000 -248 Descending Seattle Center
03:22PM 47.7669 -122.2944 283° West 196 226 3,000 -356 Level Seattle Center
03:23PM 47.7514 -122.3658 252° West 194 223 2,300 -384 Descending Seattle Center
03:24PM 47.7189 -122.4186 228° Southwest 165 190 2,200 -48 Descending Seattle Center
03:25PM 47.6742 -122.4147 177° South 164 189 2,200  Level Seattle Center
03:26PM 47.6389 -122.3950 159° South 167 192 2,200 -492 Level Seattle Center
03:27PM 47.5925 -122.3561 151° Southeast 162 186 1,200 -797 Descending Seattle Center
03:28PM 47.5603 -122.3300 151° Southeast 131 151 500 4,820 Descending Seattle Center
03:29PM 47.5294 -122.3028 149° Southeast 131 151 11,000 9,844 Climbing Seattle Center